轨道通信卫星FM12星 (ORBCOMM FM12)

导读

ORBCOMM FM 12(又称Orbcomm FM12)是美国轨道科学公司(OSC)研发的低地球轨道通信小卫星,属于ORBCOMM卫星星座的一部分,于1997年12月23日由飞马座-XL运载火箭发射升空。该卫星运行在高度约720公里、倾角45°的近地轨道,质量仅40千克,设计寿命4年,主要承担窄带机器对机器(M2M)通信服务,为全球提供低成本物联网数据传输业务,是早期低轨通信星座组网的重要组成部分。

基本信息
目录编号:
25115
目录名称:
ORBCOMM FM 12
国际标识:
1997-084D
轨道中心:
EARTH
卫星名称:
轨道通信卫星FM12星
卫星全名:
轨道通信卫星FM12星 (ORBCOMM FM12)
卫星状态:
在轨 (已飞行10398 天)
发射日期:
1997-12-23 UTC
国别 :
(ORB)
星等 :
--
轨道信息
数据来源 国际轨道数据 AOE轨道数据
星历时间 2026-06-12T09:33:23+0800
18小时前
查看轨道信息
2026-06-06T07:00:00+0800
6天前
查看轨道信息
半长轴 7114.512km 7114.574km
偏心率 0.0004288 0.0004246
轨道倾角 45.014° 45.013°
近地点辐角 263.264° 239.252°
升交点赤经 82.347° 111.704°
平近点角 96.772° 325.839°
近地点 733.324km 733.416km
远地点 739.426km 739.458km
周期 99.535分钟 99.537分钟
每日圈数 14.467223 14.467032
详细信息
固有亮度:
8
最大亮度:
6.9
平衡模式:
三轴稳定
覆盖范围:
全球
运营商:
轨道通信公司
运营商所在国:
美国
制造商(研发单位):
轨道ATK公司
制造商所在国:
美国
使用方式:
暂无
卫星简介
轨道通信FM(Orbcomm FM)是一系列低地球轨道通信卫星,由美国卫星通信公司 Orbcomm运营。 截至2015年12月,已有63颗此类卫星绕地球运行。该卫星已退役。
2D轨道图
3D轨道图
轨道高度分析图
轨道倾角分析图
轨道综合分析图
查看轨道综合分析图